Regional Weather Roundup
Issued by NWS

Home | Current Version | Previous Version | Graphics & Text | Print | Product List | Glossary On
Versions: 1 2 3 4 5 6 7 8 9 10 11 12 13 14 15 16 17 18 19 20 21 22 23 24 25 26 27 28 29 30 31 32 33 34 35 36 37 38 39 40 41 42 43 44 45 46 47 48 49 50
000
ASUS45 KCYS 271410
RWRWY

WYOMING REGIONAL WEATHER ROUNDUP
NATIONAL WEATHER SERVICE CHEYENNE WY
700 AM MST THU NOV 27 2014

NOTE:  "FAIR" INDICATES FEW OR NO CLOUDS BELOW 12,000 FEET
WITH NO SIGNIFICANT WEATHER AND/OR OBSTRUCTIONS TO VISIBILITY.

WYZ001-271500-
YELLOWSTONE NATIONAL PARK

CITY           SKY/WX    TMP DP  RH WIND       PRES   REMARKS
LK YELLOWSTONE   N/A     29  26  89 CALM      30.21S
W YELLOWSTONE  NOT AVBL

$$
WYZ002>013-054>058-071-098>099-271500-
NORTHERN WYOMING

CITY           SKY/WX    TMP DP  RH WIND       PRES   REMARKS
JACKSON        PTCLDY    39  28  65 S8        30.20F WCI  34
CODY           MOCLDY    46  27  46 SW17      30.00S
GREYBULL       CLOUDY    23  22  96 VRB5      30.09S WCI  17
WORLAND        CLOUDY    18  15  88 S6        30.08F WCI  10
SHERIDAN       CLOUDY    23  20  88 SE5       29.99F WCI  17
BUFFALO        CLOUDY    42  25  50 SW5       30.02R
GILLETTE       CLOUDY    40  29  64 SW18      30.01S WCI  31
HULETT           N/A    N/A N/A N/A MISG        N/A
NEWCASTLE      FAIR      19  19 100 CALM      30.10S

$$
WYZ014>020-022>026-101>103-271500-
CENTRAL WYOMING

CITY           SKY/WX    TMP DP  RH WIND       PRES   REMARKS
BIG PINEY      MOCLDY   N/A N/A N/A CALM      30.30S
PINEDALE       PTSUNNY   18  16  93 W6        30.31S WCI   9
DUBOIS         FAIR      37  23  56 NW12G20   30.16S WCI  30
LANDER         MOCLDY    35  23  61 VRB5      30.11F WCI  31
RIVERTON       MOCLDY    34  24  67 W3        30.13F
CASPER         CLOUDY    40  25  55 S16       30.12R WCI  31
DOUGLAS        CLOUDY    40  28  62 NW9       30.10R WCI  34

$$
WYZ021-027>030-104>119-271500-
SOUTHERN WYOMING

CITY           SKY/WX    TMP DP  RH WIND       PRES   REMARKS
EVANSTON       MOCLDY    34  21  59 SW17      30.32S WCI  23
FORT BRIDGER   FAIR      42  19  40 SW15G21   30.33S
ROCK SPRINGS   CLOUDY    38  18  44 CALM      30.31S
DIXON          FAIR      31  25  80 CALM      30.39S
RAWLINS        CLOUDY    38  21  50 SW17G24   30.28F WCI  28
SARATOGA       FAIR      37  21  52 MISG      30.32R
LARAMIE        MOCLDY    37  18  46 SW20G29   30.22S WCI  27
CHEYENNE       PTCLDY    45  19  35 W26G35    30.16S
TORRINGTON     CLOUDY    16  14  92 S5        30.11F WCI   9
PINE BLUFFS    FAIR      28  25  86 S7        30.17S WCI  21

$$


USA.gov is the U.S. government's official web portal to all federal, state and local government web resources and services.